STARLINK-34520

Last updated on Thu Jul 03 2025 00:02:07 GMT+0000 (Coordinated Universal Time)

1 64486U 25133Q 25183.58335648 -.01201257 00000+0 -58930-2 0 9999 2 64486 53.1552 210.7871 0000745 64.6086 304.0219 15.84036725 2724
UTC large
Height (km)
Speed (km/s)
/
Latitude / Longitude
Inclination (degrees)
Orbital Period (minutes)
Azimuth
Elevation
Range (km)
Doppler Factor

Next 0 passes for location: London (51.5072 / 0.1276)

Sorry there are no passes over London.